This is the latest recevied weather packets stored in our database for station/object S54A-11. If no packets are shown the sender has not sent any weather packets the latest 10 day(s).
| Time | Temp. | Humidity | Pressure | Rain* | Wind** | Luminosity | Snow |
|---|---|---|---|---|---|---|---|
| 1777574623 | 9.44° C | 36% | 1026.3 hPa | - | - | - | - |
| 1777573723 | 10° C | 36% | 1025.9 hPa | - | - | - | - |
| 1777572823 | 10.56° C | 36% | 1025.6 hPa | - | - | - | - |
| 1777571923 | 12.22° C | 35% | 1025.4 hPa | - | - | - | - |
| 1777571022 | 13.89° C | 35% | 1025.3 hPa | - | - | - | - |
| 1777570122 | 14.44° C | 30% | 1025.2 hPa | - | - | - | - |
| 1777569222 | 15.56° C | 34% | 1025.1 hPa | - | - | - | - |
| 1777568322 | 15.56° C | 30% | 1024.9 hPa | - | - | - | - |
| 1777567422 | 16.67° C | 36% | 1024.9 hPa | - | - | - | - |
| 1777566522 | 17.22° C | 29% | 1024.9 hPa | - | - | - | - |
| 1777565622 | 17.78° C | 34% | 1024.8 hPa | - | - | - | - |
| 1777564722 | 18.33° C | 34% | 1024.8 hPa | - | - | - | - |
| 1777563822 | 18.89° C | 32% | 1025 hPa | - | - | - | - |
| 1777562922 | 18.89° C | 34% | 1025 hPa | - | - | - | - |
| 1777562022 | 18.89° C | 29% | 1025 hPa | - | - | - | - |
| 1777561122 | 18.89° C | 34% | 1025 hPa | - | - | - | - |
| 1777560221 | 19.44° C | 35% | 1025 hPa | - | - | - | - |
| 1777559321 | 19.44° C | 30% | 1025.1 hPa | - | - | - | - |
| 1777558421 | 19.44° C | 35% | 1025.3 hPa | - | - | - | - |
| 1777557521 | 20° C | 30% | 1025.3 hPa | - | - | - | - |
| 1777556621 | 18.89° C | 34% | 1025.3 hPa | - | - | - | - |
| 1777555721 | 18.33° C | 29% | 1025.5 hPa | - | - | - | - |
| 1777554821 | 18.89° C | 25% | 1025.4 hPa | - | - | - | - |
| 1777553921 | 18.33° C | 32% | 1025.7 hPa | - | - | - | - |
| 1777553021 | 18.89° C | 31% | 1025.8 hPa | - | - | - | - |
* Rain since midnight (hover to see other rain measurements)
** Current wind speed in m/s (hover to see current wind gust speed)